Hourly Weather Roundup
Issued by NWS Central Illinois

Home | Current Version | Previous Version | Text Only | Print | Product List | Glossary On
Versions: 1 2 3 4 5 6 7 8 9 10 11 12 13 14 15 16 17 18 19 20 21 22 23 24 25 26 27 28 29 30 31 32 33 34 35 36 37 38 39 40 41 42 43 44 45 46 47 48 49 50
000
NZUS43 KILX 080110
HWRILX

AREA WEATHER ROUNDUP
NATIONAL WEATHER SERVICE, LINCOLN IL
700 PM CST WED DEC 07 2016


CITY           SKY/WX    TMP DP  RH WIND       PRES   REMARKS
BLOOMINGTON    MOCLDY    27  19  72 W14       30.21R WCI  16
CHAMPAIGN      MOCLDY    30  23  75 W13       30.22R WCI  20
DANVILLE       PTCLDY    28  23  79 W9        30.17S WCI  19
DECATUR        MOCLDY    31  20  63 W10       30.23R WCI  22
EFFINGHAM      CLOUDY    33  25  71 W7        30.26R WCI  27
FLORA          CLOUDY    36  24  63 W7        30.26R WCI  30
GALESBURG      MOCLDY    25  17  72 W15G21    30.24S WCI  12
JACKSONVILLE   PTCLDY    27  20  75 W7        30.27R WCI  20
LACON          CLEAR     26  16  66 W10G16    30.22S WCI  16
LAWRENCEVILLE  CLOUDY    34  24  67 W6        30.24R WCI  29
LITCHFIELD     CLOUDY    31  23  71 NW6       30.26R WCI  25
$$


CITY           SKY/WX    TMP DP  RH WIND       PRES   REMARKS
LINCOLN        MOCLDY    30  20  66 W6        30.24S WCI  24
MACOMB         PTCLDY    26  18  70 W15       30.28S WCI  14
MATTOON        CLOUDY    29  21  72 W8        30.22R WCI  21
MT CARMEL AP   CLOUDY    33  27  80 W6        30.24R WCI  27
OLNEY-NOBLE AP CLOUDY    32  28  86 W5        30.25R WCI  27
PARIS          MOCLDY    30  26  84 W9        30.22R WCI  22
PEORIA         PTCLDY    27  16  63 W10       30.24R WCI  17
PONTIAC        PTCLDY    28  21  75 W20       30.21R WCI  14
RANTOUL        CLEAR     31  24  74 W15       30.21R WCI  20
SPRINGFIELD    PTCLDY    30  20  66 NW8       30.26R WCI  22
TAYLORVILLE    MOCLDY    31  22  69 W9        30.25S WCI  23
$$

...REGIONAL REPORTS...


CITY           SKY/WX    TMP DP  RH WIND       PRES   REMARKS
CHICAGO O`HARE MOCLDY    23  16  74 W20G31    30.12R WCI   8
KANKAKEE       CLEAR     27  20  77 W13       30.18S WCI  16
MOLINE         CLOUDY    25  13  60 W21       30.22F WCI  11
MOUNT STERLING CLEAR     26  17  68 W8        30.27R WCI  17
MOUNT VERNON   NOT AVBL
PITTSFIELD     CLEAR     29  18  62 W7        30.29R WCI  22
QUINCY         MOCLDY    27  16  63 NW12      30.28R WCI  17
ROCKFORD       FLURRIES  22  14  71 W18G26    30.18R WCI   7
$$


CITY           SKY/WX    TMP DP  RH WIND       PRES   REMARKS
BURLINGTON     PTCLDY    25  14  63 W12       30.26R WCI  14
CEDAR RAPIDS   CLOUDY    20  15  81 W13       30.22R WCI   7
DES MOINES     PTCLDY    21   9  59 NW15      30.30R WCI   8
KIRKSVILLE     PTCLDY    24  11  57 NW18G24   30.32R WCI  10
OTTUMWA        CLEAR     21  10  62 W12       30.28S WCI   9
ST LOUIS       CLOUDY    36  18  48 NW12      30.28R WCI  28
$$


CITY           SKY/WX    TMP DP  RH WIND       PRES   REMARKS
TERRE HAUTE    MOCLDY    32  22  66 W7        30.22R WCI  26
EVANSVILLE     CLOUDY    36  24  62 NW3       30.24F
INDIANAPOLIS   CLOUDY    32  22  66 W13       30.17S WCI  22
LAFAYETTE      PTCLDY    29  23  78 W9        30.17S WCI  20
MADISON        FLURRIES  20  12  71 W13G18    30.08S WCI   7
MILWAUKEE      CLOUDY    23  12  62 W14G29    30.07S WCI  11
$$






USA.gov is the U.S. government's official web portal to all federal, state and local government web resources and services.